This is the latest recevied weather packets stored in our database for station/object NZ3C. If no packets are shown the sender has not sent any weather packets the latest 1 day(s).
| Time | Temp. | Humidity | Pressure | Rain* | Wind** | Luminosity | Snow |
|---|---|---|---|---|---|---|---|
| 1778011830 | 27.22° C | 41% | 1016.6 hPa | 0 mm | 0.45 m/s, 263° | 292 W/m² | - |
| 1778011528 | 27.22° C | 40% | 1016.7 hPa | 0 mm | 0.89 m/s, 98° | 568 W/m² | - |
| 1778011224 | 27.22° C | 41% | 1016.7 hPa | 0 mm | 0.45 m/s, 318° | 298 W/m² | - |
| 1778010920 | 27.78° C | 42% | 1016.6 hPa | 0 mm | 0.89 m/s, 44° | 385 W/m² | - |
| 1778010618 | 27.78° C | 41% | 1016.5 hPa | 0 mm | 1.34 m/s, 234° | 779 W/m² | - |
| 1778010315 | 27.78° C | 40% | 1016.6 hPa | 0 mm | 1.34 m/s, 323° | 794 W/m² | - |
| 1778010010 | 27.78° C | 42% | 1017.2 hPa | 0 mm | 0.45 m/s, 291° | 524 W/m² | - |
| 1778009708 | 27.78° C | 39% | 1017.1 hPa | 0 mm | 1.34 m/s, 192° | 582 W/m² | - |
| 1778009405 | 27.78° C | 39% | 1017.2 hPa | 0 mm | 0.89 m/s, 101° | 578 W/m² | - |
| 1778009103 | 27.78° C | 39% | 1017.1 hPa | 0 mm | 1.79 m/s, 240° | 554 W/m² | - |
| 1778008800 | 27.22° C | 39% | 1017.5 hPa | 0 mm | 0.89 m/s, 277° | 669 W/m² | - |
| 1778008499 | 27.22° C | 40% | 1017.5 hPa | 0 mm | 1.34 m/s, 229° | 746 W/m² | - |
| 1778008196 | 27.22° C | 40% | 1017.5 hPa | 0 mm | 0.89 m/s, 208° | 577 W/m² | - |
| 1778007890 | 26.67° C | 41% | 1017.5 hPa | 0 mm | 1.34 m/s, 197° | 659 W/m² | - |
| 1778007586 | 27.22° C | 42% | 1017.7 hPa | 0 mm | 1.79 m/s, 121° | 278 W/m² | - |
| 1778007284 | 27.22° C | 40% | 1017.8 hPa | 0 mm | 1.34 m/s, 92° | 506 W/m² | - |
| 1778006980 | 27.22° C | 41% | 1017.7 hPa | 0 mm | 1.79 m/s, 296° | 753 W/m² | - |
| 1778006677 | 27.78° C | 42% | 1017.9 hPa | 0 mm | 1.34 m/s, 237° | 547 W/m² | - |
| 1778006373 | 27.22° C | 40% | 1018 hPa | 0 mm | 2.68 m/s, 105° | 900 W/m² | - |
| 1778006070 | 27.78° C | 41% | 1018 hPa | 0 mm | 0.89 m/s, 102° | 809 W/m² | - |
| 1778005767 | 27.78° C | 41% | 1018.1 hPa | 0 mm | 0.89 m/s, 284° | 962 W/m² | - |
| 1778005464 | 27.78° C | 38% | 1018 hPa | 0 mm | 0.89 m/s, 256° | 932 W/m² | - |
| 1778005160 | 28.33° C | 38% | 1018.1 hPa | 0 mm | 0.89 m/s, 261° | 911 W/m² | - |
| 1778004858 | 27.22° C | 41% | 1018.1 hPa | 0 mm | 0.89 m/s, 288° | 952 W/m² | - |
| 1778004554 | 27.22° C | 41% | 1018.4 hPa | 0 mm | 1.79 m/s, 120° | 913 W/m² | - |
* Rain latest hour (hover to see other rain measurements)
** Current wind speed in m/s (hover to see current wind gust speed)